Regional Weather Roundup
Issued by NWS

Current Version | Previous Version | Text Only | Print | Product List | Glossary On
Versions: 1 2 3 4 5 6 7 8 9 10 11 12 13 14 15 16 17 18 19 20 21 22 23 24 25 26 27 28 29 30 31 32 33 34 35 36 37 38 39 40 41 42 43 44 45 46 47 48 49 50
000
ASUS44 KBMX 020210
RWRAL

ALABAMA REGIONAL WEATHER ROUNDUP
NATIONAL WEATHER SERVICE BIRMINGHAM AL
900 PM CDT TUE SEP 01 2015

NOTE: "FAIR" INDICATES FEW OR NO CLOUDS BELOW 12,000 FEET
WITH NO SIGNIFICANT WEATHER AND/OR OBSTRUCTIONS TO VISIBILITY.

THE REMARK "TC" DENOTES TEMPERATURE IN DEGREES CELSIUS.

ALZ001>011-014-016>018-020-020300-
NORTH ALABAMA

CITY           SKY/WX    TMP DP  RH WIND       PRES   REMARKS
MUSCLE SHOALS  PTCLDY    73  69  87 CALM      30.09S
HUNTSVILLE     MOCLDY    76  69  79 N3        30.09R
DECATUR        PTCLDY    73  72  96 CALM      30.10R
HALEYVILLE     FAIR      71  71 100 CALM      30.13R
GADSDEN        PTCLDY    75  68  78 CALM      30.08R
$$

ALZ012-013-022-023-030>036-040>044-020300-
WEST CENTRAL ALABAMA

CITY           SKY/WX    TMP DP  RH WIND       PRES   REMARKS
TUSCALOOSA     MOCLDY    77  72  84 CALM      30.06R
$$

ALZ015-024>027-033>036-040>044-020300-
CENTRAL ALABAMA

CITY           SKY/WX    TMP DP  RH WIND       PRES   REMARKS
BIRMINGHAM     PTCLDY    78  72  81 CALM      30.10R
MONTGOMERY     CLEAR     82  69  64 CALM      30.05R
SHELBY CO ARPT PTCLDY    77  73  87 CALM      30.08R
MAXWELL AFB    PTCLDY    79  74  85 NW2       30.04R
GREENVILLE     FAIR      79  72  79 CALM      30.05R
$$

ALZ019-021-028-029-037-038-045>048-020300-
EAST CENTRAL ALABAMA

CITY           SKY/WX    TMP DP  RH WIND       PRES   REMARKS
ANNISTON       PTCLDY    76  72  87 CALM      30.09R
ALEXANDER CITY CLEAR     77  74  91 CALM      30.09R
AUBURN         NOT AVBL
$$

ALZ051>064-020300-
SOUTHWEST ALABAMA

CITY           SKY/WX    TMP DP  RH WIND       PRES   REMARKS
MOBILE         PTCLDY    78  71  79 SW3       30.05R
BROOKLEY FIELD CLEAR     81  71  71 W3        30.05R
EVERGREEN      CLEAR     77  75  93 CALM      30.04R
$$

ALZ049-050-065>069-020300-
SOUTHEAST ALABAMA

CITY           SKY/WX    TMP DP  RH WIND       PRES   REMARKS
DOTHAN         CLEAR     77  74  90 NE3       30.09R
OZARK          MOCLDY    79  68  70 NE5       30.05R
TROY           CLEAR     76  72  87 CALM      30.07R
EUFAULA        FAIR      77  74  90 CALM      30.06R
$$


USA.gov is the U.S. government's official web portal to all federal, state and local government web resources and services.